Location: Peebles
(55.6412°N, 3.1714°W)
Time: 23:04:33
(UTC+00:00)

SPOT 3 Rocket - Visible Passes

Search period start: 27 January 2022 00:00
Search period end: 06 February 2022 00:00
Orbit: 778 x 795 km, 98.7° (Epoch: 27 January)

Date Brightness Start Highest point End Pass type
(mag) Time Alt. Az. Time Alt. Az. Time Alt. Az.
27 Jan 5.6 18:21:08 11° NNE 18:21:08 11° NNE 18:21:51 10° NNE visible
27 Jan 5.3 20:01:47 20° N 20:01:47 20° N 20:03:33 10° N visible
27 Jan 6.2 21:42:25 14° NNW 21:42:25 14° NNW 21:43:09 10° NNW visible
28 Jan 5.3 19:30:47 19° NNE 19:30:47 19° NNE 19:32:43 10° N visible
28 Jan 5.8 21:11:25 18° NNW 21:11:25 18° NNW 21:12:43 10° NNW visible
29 Jan 5.3 18:59:47 16° NNE 18:59:47 16° NNE 19:01:42 10° N visible
29 Jan 5.5 20:40:25 21° N 20:40:25 21° N 20:42:09 10° NNW visible
29 Jan 6.6 22:21:04 10° NW 22:21:04 10° NW 22:21:08 10° NW visible
30 Jan 5.5 18:28:47 12° NE 18:28:47 12° NE 18:30:14 10° NNE visible
30 Jan 5.2 20:09:25 23° N 20:09:25 23° N 20:11:28 10° N visible
30 Jan 6.2 21:50:04 15° NNW 21:50:04 15° NNW 21:50:58 10° NNW visible
31 Jan 5.1 19:38:26 21° NNE 19:38:26 21° NNE 19:40:40 10° N visible
31 Jan 5.8 21:19:04 20° NNW 21:19:04 20° NNW 21:20:35 10° NNW visible
01 Feb 5.2 19:07:25 17° NNE 19:07:25 17° NNE 19:09:44 10° N visible
01 Feb 5.3 20:48:04 24° NNW 20:48:04 24° NNW 20:50:03 10° NNW visible
01 Feb 6.5 22:28:42 11° NW 22:28:42 11° NW 22:28:51 10° NW visible
02 Feb 5.4 18:36:24 13° NE 18:36:24 13° NE 18:38:27 10° NNE visible
02 Feb 5.1 20:17:03 26° N 20:17:03 26° N 20:19:24 10° N visible
02 Feb 6.1 21:57:41 16° NW 21:57:41 16° NW 21:58:47 10° NNW visible
03 Feb 5.0 19:46:03 24° NNE 19:46:03 24° NNE 19:48:38 10° N visible
03 Feb 5.7 21:26:41 21° NNW 21:26:41 21° NNW 21:28:27 10° NNW visible
04 Feb 5.1 19:15:02 19° NNE 19:15:02 19° NNE 19:17:44 10° N visible
04 Feb 5.2 20:55:41 27° NNW 20:55:41 27° NNW 20:57:56 10° NNW visible
04 Feb 6.5 22:36:19 11° NW 22:36:19 11° NW 22:36:33 10° NW visible
05 Feb 5.3 18:44:02 14° NE 18:44:02 14° NE 18:46:34 10° NNE visible
05 Feb 4.9 20:24:40 29° N 20:24:40 29° N 20:27:19 10° N visible
05 Feb 6.1 22:05:19 16° NW 22:05:19 16° NW 22:06:35 10° NNW visible
